Time,TemperatureF,DewpointF,PressureIn,WindDirection,WindDirectionDegrees,WindSpeedMPH,WindSpeedGustMPH,Humidity,HourlyPrecipIn,Conditions,Clouds,dailyrainin,SoftwareType,DateUTC
2013-12-18 00:02:00,38.6,30.7,30.26,NNE,22,0.0,0.0,73,0.00,,---,0.00,VWS V14.01,2013-12-18 06:02:00,
2013-12-18 00:07:00,38.5,30.6,30.26,NNE,22,0.0,0.0,73,0.00,,---,0.00,VWS V14.01,2013-12-18 06:07:00,
2013-12-18 00:12:00,38.5,31.0,30.26,NNE,22,0.0,0.0,74,0.00,,---,0.00,VWS V14.01,2013-12-18 06:12:00,
2013-12-18 00:17:00,38.7,31.1,30.26,NNE,22,0.0,1.0,74,0.00,,---,0.00,VWS V14.01,2013-12-18 06:17:00,
2013-12-18 00:22:00,39.3,31.4,30.25,NNE,22,0.0,0.0,73,0.00,,---,0.00,VWS V14.01,2013-12-18 06:22:00,
2013-12-18 00:27:00,39.6,31.3,30.26,NNE,22,0.0,0.0,72,0.00,,---,0.00,VWS V14.01,2013-12-18 06:27:00,
2013-12-18 00:32:00,39.7,31.4,30.26,NNE,22,0.0,0.0,72,0.00,,---,0.00,VWS V14.01,2013-12-18 06:32:00,
2013-12-18 00:37:00,39.6,31.3,30.25,NNE,22,0.0,0.0,72,0.00,,---,0.00,VWS V14.01,2013-12-18 06:37:00,
2013-12-18 00:42:00,39.5,31.2,30.25,NNE,22,0.0,0.0,72,0.00,,---,0.00,VWS V14.01,2013-12-18 06:42:00,
2013-12-18 00:47:00,39.2,30.6,30.25,NNE,22,0.0,0.0,71,0.00,,---,0.00,VWS V14.01,2013-12-18 06:47:00,
2013-12-18 00:52:00,39.0,30.8,30.25,NNE,22,0.0,0.0,72,0.00,,---,0.00,VWS V14.01,2013-12-18 06:52:00,
2013-12-18 00:57:00,38.8,30.6,30.24,NNE,22,0.0,0.0,72,0.00,,---,0.00,VWS V14.01,2013-12-18 06:57:00,
2013-12-18 01:02:00,38.5,30.3,30.24,NNE,22,0.0,0.0,72,0.00,,---,0.00,VWS V14.01,2013-12-18 07:02:00,
2013-12-18 01:07:00,38.2,30.0,30.24,NNE,22,0.0,0.0,72,0.00,,---,0.00,VWS V14.01,2013-12-18 07:07:00,
2013-12-18 01:12:00,37.9,30.0,30.23,NNE,22,0.0,0.0,73,0.00,,---,0.00,VWS V14.01,2013-12-18 07:12:00,
2013-12-18 01:17:00,37.6,30.1,30.23,NNE,22,0.0,0.0,74,0.00,,---,0.00,VWS V14.01,2013-12-18 07:17:00,
2013-12-18 01:22:00,37.3,30.1,30.23,NNE,22,0.0,0.0,75,0.00,,---,0.00,VWS V14.01,2013-12-18 07:22:00,
2013-12-18 01:27:00,37.3,30.4,30.23,NNE,22,2.0,2.0,76,0.00,,---,0.00,VWS V14.01,2013-12-18 07:27:00,
2013-12-18 01:32:00,37.7,31.1,30.23,NNE,22,0.0,1.0,77,0.00,,---,0.00,VWS V14.01,2013-12-18 07:32:00,
2013-12-18 01:37:00,38.5,31.6,30.23,NNE,23,0.0,2.0,76,0.00,,---,0.00,VWS V14.01,2013-12-18 07:37:00,
2013-12-18 01:42:00,39.0,31.4,30.23,NNE,23,0.0,0.0,74,0.00,,---,0.00,VWS V14.01,2013-12-18 07:42:00,
2013-12-18 01:47:00,39.2,31.3,30.23,NNE,23,2.0,2.0,73,0.00,,---,0.00,VWS V14.01,2013-12-18 07:47:00,
2013-12-18 01:52:00,39.4,31.5,30.23,NNE,23,0.0,0.0,73,0.00,,---,0.00,VWS V14.01,2013-12-18 07:52:00,
2013-12-18 01:57:00,39.6,31.7,30.23,NNE,23,0.0,0.0,73,0.00,,---,0.00,VWS V14.01,2013-12-18 07:57:00,
2013-12-18 02:02:00,39.8,31.5,30.23,NNE,23,2.0,2.0,72,0.00,,---,0.00,VWS V14.01,2013-12-18 08:02:00,
2013-12-18 02:07:00,39.4,30.4,30.23,NNE,23,2.0,2.0,70,0.00,,---,0.00,VWS V14.01,2013-12-18 08:07:00,
2013-12-18 02:12:00,38.3,29.7,30.23,NNE,23,0.0,0.0,71,0.00,,---,0.00,VWS V14.01,2013-12-18 08:12:00,
2013-12-18 02:17:00,38.0,29.8,30.22,NNE,23,0.0,0.0,72,0.00,,---,0.00,VWS V14.01,2013-12-18 08:17:00,
2013-12-18 02:22:00,37.9,30.0,30.22,NNE,23,0.0,0.0,73,0.00,,---,0.00,VWS V14.01,2013-12-18 08:22:00,
2013-12-18 02:27:00,37.8,29.9,30.22,NNE,23,0.0,0.0,73,0.00,,---,0.00,VWS V14.01,2013-12-18 08:27:00,
2013-12-18 02:32:00,37.8,30.3,30.22,NNE,23,0.0,0.0,74,0.00,,---,0.00,VWS V14.01,2013-12-18 08:32:00,
2013-12-18 02:37:00,37.7,30.2,30.23,NNE,23,0.0,0.0,74,0.00,,---,0.00,VWS V14.01,2013-12-18 08:37:00,
2013-12-18 02:42:00,37.7,30.5,30.23,NNE,23,0.0,0.0,75,0.00,,---,0.00,VWS V14.01,2013-12-18 08:42:00,
2013-12-18 02:47:00,37.7,30.5,30.23,NNE,23,0.0,0.0,75,0.00,,---,0.00,VWS V14.01,2013-12-18 08:47:00,
2013-12-18 02:52:00,37.8,30.6,30.23,NNE,23,2.0,2.0,75,0.00,,---,0.00,VWS V14.01,2013-12-18 08:52:00,
2013-12-18 02:57:00,38.0,30.8,30.23,NNE,23,0.0,1.0,75,0.00,,---,0.00,VWS V14.01,2013-12-18 08:57:00,
2013-12-18 03:02:00,38.1,30.6,30.22,NNE,23,4.0,4.0,74,0.00,,---,0.00,VWS V14.01,2013-12-18 09:02:00,
2013-12-18 03:07:00,37.4,29.9,30.23,NNE,23,0.0,1.0,74,0.00,,---,0.00,VWS V14.01,2013-12-18 09:07:00,
2013-12-18 03:12:00,37.2,30.4,30.22,NNE,23,2.0,2.0,76,0.00,,---,0.00,VWS V14.01,2013-12-18 09:12:00,
2013-12-18 03:17:00,37.3,30.4,30.22,NNE,23,0.0,2.0,76,0.00,,---,0.00,VWS V14.01,2013-12-18 09:17:00,
2013-12-18 03:22:00,37.5,30.6,30.21,NNE,23,0.0,1.0,76,0.00,,---,0.00,VWS V14.01,2013-12-18 09:22:00,
2013-12-18 03:27:00,37.7,30.8,30.21,NNE,23,2.0,2.0,76,0.00,,---,0.00,VWS V14.01,2013-12-18 09:27:00,
2013-12-18 03:32:00,38.0,31.1,30.21,NNE,23,0.0,0.0,76,0.00,,---,0.00,VWS V14.01,2013-12-18 09:32:00,
2013-12-18 03:37:00,38.2,31.0,30.21,NNE,23,0.0,1.0,75,0.00,,---,0.00,VWS V14.01,2013-12-18 09:37:00,
2013-12-18 03:42:00,38.3,31.1,30.21,NNE,23,0.0,0.0,75,0.00,,---,0.00,VWS V14.01,2013-12-18 09:42:00,
2013-12-18 03:47:00,38.4,31.2,30.21,NNE,23,0.0,1.0,75,0.00,,---,0.00,VWS V14.01,2013-12-18 09:47:00,
2013-12-18 03:52:00,38.5,31.0,30.20,NNE,23,0.0,1.0,74,0.00,,---,0.00,VWS V14.01,2013-12-18 09:52:00,
2013-12-18 03:57:00,38.6,31.0,30.20,NNE,23,0.0,1.0,74,0.00,,---,0.00,VWS V14.01,2013-12-18 09:57:00,
2013-12-18 04:02:00,38.7,30.8,30.20,NNE,23,0.0,0.0,73,0.00,,---,0.00,VWS V14.01,2013-12-18 10:02:00,
2013-12-18 04:07:00,38.7,30.8,30.21,NNE,23,0.0,0.0,73,0.00,,---,0.00,VWS V14.01,2013-12-18 10:07:00,
2013-12-18 04:12:00,38.7,30.8,30.21,NNE,23,0.0,0.0,73,0.00,,---,0.00,VWS V14.01,2013-12-18 10:12:00,
2013-12-18 04:17:00,38.7,30.8,30.21,NNE,23,0.0,0.0,73,0.00,,---,0.00,VWS V14.01,2013-12-18 10:17:00,
2013-12-18 04:22:00,38.6,30.7,30.21,NNE,23,0.0,0.0,73,0.00,,---,0.00,VWS V14.01,2013-12-18 10:22:00,
2013-12-18 04:27:00,38.6,30.7,30.20,NNE,23,0.0,0.0,73,0.00,,---,0.00,VWS V14.01,2013-12-18 10:27:00,
2013-12-18 04:32:00,38.3,30.4,30.20,NNE,23,0.0,0.0,73,0.00,,---,0.00,VWS V14.01,2013-12-18 10:32:00,
2013-12-18 04:37:00,38.1,30.2,30.20,NNE,23,0.0,1.0,73,0.00,,---,0.00,VWS V14.01,2013-12-18 10:37:00,
2013-12-18 04:42:00,37.9,30.0,30.20,NNE,23,0.0,0.0,73,0.00,,---,0.00,VWS V14.01,2013-12-18 10:42:00,
2013-12-18 04:47:00,37.8,30.3,30.19,NNE,23,0.0,1.0,74,0.00,,---,0.00,VWS V14.01,2013-12-18 10:47:00,
2013-12-18 04:52:00,37.9,30.7,30.20,NNE,30,0.0,1.0,75,0.00,,---,0.00,VWS V14.01,2013-12-18 10:52:00,
2013-12-18 04:58:00,37.9,30.7,30.19,NNE,30,2.0,2.0,75,0.00,,---,0.00,VWS V14.01,2013-12-18 10:58:00,
2013-12-18 05:03:00,38.1,30.9,30.19,NE,34,6.0,6.0,75,0.00,,---,0.00,VWS V14.01,2013-12-18 11:03:00,
2013-12-18 05:08:00,38.5,31.0,30.19,ENE,62,4.0,4.0,74,0.00,,---,0.00,VWS V14.01,2013-12-18 11:08:00,
2013-12-18 05:13:00,38.9,31.0,30.19,SE,139,2.0,2.0,73,0.00,,---,0.00,VWS V14.01,2013-12-18 11:13:00,
2013-12-18 05:14:00,38.9,31.0,30.19,SE,139,2.0,3.0,73,0.00,,---,0.00,VWS V14.01,2013-12-18 11:14:00,
2013-12-18 05:19:00,39.4,31.1,30.19,SE,140,10.0,10.0,72,0.00,,---,0.00,VWS V14.01,2013-12-18 11:19:00,
2013-12-18 05:24:00,39.8,31.5,30.18,SE,139,8.0,8.0,72,0.00,,---,0.00,VWS V14.01,2013-12-18 11:24:00,
2013-12-18 05:29:00,40.2,31.6,30.19,SE,144,4.0,4.0,71,0.00,,---,0.00,VWS V14.01,2013-12-18 11:29:00,
2013-12-18 05:34:00,40.6,31.6,30.19,SE,136,8.0,8.0,70,0.00,,---,0.00,VWS V14.01,2013-12-18 11:34:00,
2013-12-18 05:39:00,41.0,31.6,30.19,SE,143,8.0,8.0,69,0.00,,---,0.00,VWS V14.01,2013-12-18 11:39:00,
2013-12-18 05:44:00,41.3,31.5,30.19,SE,140,8.0,8.0,68,0.00,,---,0.00,VWS V14.01,2013-12-18 11:44:00,
2013-12-18 05:49:00,41.6,31.8,30.19,SE,139,6.0,6.0,68,0.00,,---,0.00,VWS V14.01,2013-12-18 11:49:00,
2013-12-18 05:54:00,41.6,31.5,30.19,SE,143,2.0,4.0,67,0.00,,---,0.00,VWS V14.01,2013-12-18 11:54:00,
2013-12-18 05:59:00,41.5,31.4,30.19,SE,142,4.0,4.0,67,0.00,,---,0.00,VWS V14.01,2013-12-18 11:59:00,
2013-12-18 06:04:00,41.2,31.5,30.19,SE,140,4.0,5.0,68,0.00,,---,0.00,VWS V14.01,2013-12-18 12:04:00,
2013-12-18 06:09:00,41.0,31.3,30.18,SE,141,6.0,6.0,68,0.00,,---,0.00,VWS V14.01,2013-12-18 12:09:00,
2013-12-18 06:14:00,40.7,31.0,30.18,SE,140,6.0,6.0,68,0.00,,---,0.00,VWS V14.01,2013-12-18 12:14:00,
2013-12-18 06:19:00,40.5,31.1,30.18,SE,136,12.0,12.0,69,0.00,,---,0.00,VWS V14.01,2013-12-18 12:19:00,
2013-12-18 06:24:00,40.2,30.9,30.18,SE,136,4.0,4.0,69,0.00,,---,0.00,VWS V14.01,2013-12-18 12:24:00,
2013-12-18 06:29:00,40.0,31.0,30.18,SE,136,6.0,6.0,70,0.00,,---,0.00,VWS V14.01,2013-12-18 12:29:00,
2013-12-18 06:34:00,39.7,30.7,30.17,SE,135,8.0,8.0,70,0.00,,---,0.00,VWS V14.01,2013-12-18 12:34:00,
2013-12-18 06:39:00,39.6,30.6,30.18,SE,132,6.0,6.0,70,0.00,,---,0.00,VWS V14.01,2013-12-18 12:39:00,
2013-12-18 06:44:00,39.5,30.9,30.18,SE,134,6.0,6.0,71,0.00,,---,0.00,VWS V14.01,2013-12-18 12:44:00,
2013-12-18 06:49:00,39.4,30.8,30.18,SE,136,4.0,4.0,71,0.00,,---,0.00,VWS V14.01,2013-12-18 12:49:00,
2013-12-18 06:54:00,39.6,31.0,30.17,SE,134,10.0,10.0,71,0.00,,---,0.00,VWS V14.01,2013-12-18 12:54:00,
2013-12-18 06:59:00,39.7,31.1,30.18,SE,136,8.0,8.0,71,0.00,,---,0.00,VWS V14.01,2013-12-18 12:59:00,
2013-12-18 07:04:00,39.8,30.8,30.18,SE,138,8.0,8.0,70,0.00,,---,0.00,VWS V14.01,2013-12-18 13:04:00,
2013-12-18 07:09:00,39.8,30.8,30.18,SE,143,4.0,5.0,70,0.00,,---,0.00,VWS V14.01,2013-12-18 13:09:00,
2013-12-18 07:14:00,39.8,30.8,30.18,SE,137,4.0,5.0,70,0.00,,---,0.00,VWS V14.01,2013-12-18 13:14:00,
2013-12-18 07:19:00,39.8,30.8,30.18,SE,141,8.0,8.0,70,0.00,,---,0.00,VWS V14.01,2013-12-18 13:19:00,
2013-12-18 07:24:00,39.8,30.8,30.18,SE,134,14.0,14.0,70,0.00,,---,0.00,VWS V14.01,2013-12-18 13:24:00,
2013-12-18 07:29:00,39.7,30.7,30.18,SE,136,6.0,8.0,70,0.00,,---,0.00,VWS V14.01,2013-12-18 13:29:00,
2013-12-18 07:34:00,39.6,30.6,30.18,SE,139,8.0,8.0,70,0.00,,---,0.00,VWS V14.01,2013-12-18 13:34:00,
2013-12-18 07:39:00,39.5,30.9,30.17,SE,138,8.0,8.0,71,0.00,,---,0.00,VWS V14.01,2013-12-18 13:39:00,
2013-12-18 07:44:00,39.3,30.7,30.17,SE,138,6.0,10.0,71,0.00,,---,0.00,VWS V14.01,2013-12-18 13:44:00,
2013-12-18 07:49:00,39.2,30.6,30.17,SE,138,8.0,9.0,71,0.00,,---,0.00,VWS V14.01,2013-12-18 13:49:00,
2013-12-18 07:54:00,39.2,30.6,30.17,SE,136,10.0,10.0,71,0.00,,---,0.00,VWS V14.01,2013-12-18 13:54:00,
2013-12-18 07:59:00,39.3,30.7,30.17,SE,139,10.0,10.0,71,0.00,,---,0.00,VWS V14.01,2013-12-18 13:59:00,
2013-12-18 08:04:00,39.3,31.0,30.17,SE,137,14.0,14.0,72,0.00,,---,0.00,VWS V14.01,2013-12-18 14:04:00,
2013-12-18 08:09:00,39.3,31.0,30.17,SE,139,6.0,6.0,72,0.00,,---,0.00,VWS V14.01,2013-12-18 14:09:00,
2013-12-18 08:14:00,39.5,31.2,30.16,SE,141,14.0,14.0,72,0.00,,---,0.00,VWS V14.01,2013-12-18 14:14:00,
2013-12-18 08:19:00,39.8,31.2,30.16,SE,146,12.0,12.0,71,0.00,,---,0.00,VWS V14.01,2013-12-18 14:19:00,
2013-12-18 08:24:00,40.0,31.4,30.17,SE,139,14.0,14.0,71,0.00,,---,0.00,VWS V14.01,2013-12-18 14:24:00,
2013-12-18 08:29:00,40.3,31.3,30.17,SSE,157,10.0,10.0,70,0.00,,---,0.00,VWS V14.01,2013-12-18 14:29:00,
2013-12-18 08:34:00,40.5,31.5,30.17,SSE,152,6.0,6.0,70,0.00,,---,0.00,VWS V14.01,2013-12-18 14:34:00,
2013-12-18 08:39:00,40.8,31.8,30.16,SE,146,10.0,10.0,70,0.00,,---,0.00,VWS V14.01,2013-12-18 14:39:00,
2013-12-18 08:44:00,41.1,31.7,30.16,SE,140,16.0,16.0,69,0.00,,---,0.00,VWS V14.01,2013-12-18 14:44:00,
2013-12-18 08:49:00,41.4,32.0,30.16,SSE,155,12.0,12.0,69,0.00,,---,0.00,VWS V14.01,2013-12-18 14:49:00,
2013-12-18 08:54:00,41.6,32.2,30.17,SE,131,12.0,12.0,69,0.00,,---,0.00,VWS V14.01,2013-12-18 14:54:00,
2013-12-18 08:59:00,41.8,32.0,30.17,SSE,165,16.0,16.0,68,0.00,,---,0.00,VWS V14.01,2013-12-18 14:59:00,
2013-12-18 09:04:00,42.0,32.2,30.17,SE,140,8.0,8.0,68,0.00,,---,0.00,VWS V14.01,2013-12-18 15:04:00,
2013-12-18 09:09:00,42.0,32.2,30.17,SSE,157,10.0,10.0,68,0.00,,---,0.00,VWS V14.01,2013-12-18 15:09:00,
2013-12-18 09:14:00,42.1,32.3,30.17,SSE,154,14.0,14.0,68,0.00,,---,0.00,VWS V14.01,2013-12-18 15:14:00,
2013-12-18 09:19:00,42.3,32.5,30.16,SSE,148,20.0,20.0,68,0.00,,---,0.00,VWS V14.01,2013-12-18 15:19:00,
2013-12-18 09:24:00,42.6,32.8,30.16,SSE,147,6.0,6.0,68,0.00,,---,0.00,VWS V14.01,2013-12-18 15:24:00,
2013-12-18 09:29:00,43.1,33.3,30.16,SE,145,10.0,10.0,68,0.00,,---,0.00,VWS V14.01,2013-12-18 15:29:00,
2013-12-18 09:34:00,43.6,33.4,30.16,SSE,153,14.0,14.0,67,0.00,,---,0.00,VWS V14.01,2013-12-18 15:34:00,
2013-12-18 09:39:00,44.2,34.0,30.16,SE,136,20.0,20.0,67,0.00,,---,0.00,VWS V14.01,2013-12-18 15:39:00,
2013-12-18 09:44:00,44.6,34.3,30.16,SSE,148,6.0,6.0,67,0.00,,---,0.00,VWS V14.01,2013-12-18 15:44:00,
2013-12-18 09:49:00,45.1,34.8,30.15,SE,144,4.0,7.0,67,0.00,,---,0.00,VWS V14.01,2013-12-18 15:49:00,
2013-12-18 09:54:00,45.7,35.4,30.15,SSE,156,10.0,10.0,67,0.00,,---,0.00,VWS V14.01,2013-12-18 15:54:00,
2013-12-18 09:59:00,46.2,35.5,30.15,South,171,14.0,14.0,66,0.00,,---,0.00,VWS V14.01,2013-12-18 15:59:00,
2013-12-18 10:04:00,46.9,36.2,30.15,SSE,156,8.0,8.0,66,0.00,,---,0.00,VWS V14.01,2013-12-18 16:04:00,
2013-12-18 10:09:00,47.4,37.0,30.15,SSE,163,10.0,10.0,67,0.00,,---,0.00,VWS V14.01,2013-12-18 16:09:00,
2013-12-18 10:14:00,48.1,37.3,30.15,SE,140,8.0,8.0,66,0.00,,---,0.00,VWS V14.01,2013-12-18 16:14:00,
2013-12-18 10:19:00,48.9,37.7,30.15,South,178,16.0,16.0,65,0.00,,---,0.00,VWS V14.01,2013-12-18 16:19:00,
2013-12-18 10:24:00,49.7,38.4,30.15,SE,146,10.0,10.0,65,0.00,,---,0.00,VWS V14.01,2013-12-18 16:24:00,
2013-12-18 10:29:00,50.4,38.3,30.15,SE,145,16.0,16.0,63,0.00,,---,0.00,VWS V14.01,2013-12-18 16:29:00,
2013-12-18 10:34:00,51.1,39.0,30.15,SE,132,8.0,8.0,63,0.00,,---,0.00,VWS V14.01,2013-12-18 16:34:00,
2013-12-18 10:39:00,51.6,39.0,30.15,South,174,10.0,10.0,62,0.00,,---,0.00,VWS V14.01,2013-12-18 16:39:00,
2013-12-18 10:44:00,52.1,39.5,30.15,South,187,14.0,14.0,62,0.00,,---,0.00,VWS V14.01,2013-12-18 16:44:00,
2013-12-18 10:49:00,52.8,39.7,30.15,SSW,192,20.0,20.0,61,0.00,,---,0.00,VWS V14.01,2013-12-18 16:49:00,
2013-12-18 10:54:00,53.4,39.9,30.15,SE,146,12.0,12.0,60,0.00,,---,0.00,VWS V14.01,2013-12-18 16:54:00,
2013-12-18 10:59:00,53.8,40.3,30.14,SSW,193,18.0,18.0,60,0.00,,---,0.00,VWS V14.01,2013-12-18 16:59:00,
2013-12-18 11:04:00,54.1,40.1,30.14,SSE,161,8.0,8.0,59,0.00,,---,0.00,VWS V14.01,2013-12-18 17:04:00,
2013-12-18 11:09:00,54.5,40.5,30.14,SSE,156,20.0,20.0,59,0.00,,---,0.00,VWS V14.01,2013-12-18 17:09:00,
2013-12-18 11:14:00,55.0,40.5,30.13,South,179,8.0,8.0,58,0.00,,---,0.00,VWS V14.01,2013-12-18 17:14:00,
2013-12-18 11:19:00,55.6,41.1,30.13,South,170,10.0,10.0,58,0.00,,---,0.00,VWS V14.01,2013-12-18 17:19:00,
2013-12-18 11:24:00,56.3,41.3,30.13,South,180,22.0,22.0,57,0.00,,---,0.00,VWS V14.01,2013-12-18 17:24:00,
2013-12-18 11:29:00,56.7,41.7,30.12,South,178,10.0,10.0,57,0.00,,---,0.00,VWS V14.01,2013-12-18 17:29:00,
2013-12-18 11:34:00,57.1,41.1,30.11,South,172,18.0,18.0,55,0.00,,---,0.00,VWS V14.01,2013-12-18 17:34:00,
2013-12-18 11:39:00,57.4,41.4,30.11,South,189,12.0,12.0,55,0.00,,---,0.00,VWS V14.01,2013-12-18 17:39:00,
2013-12-18 11:44:00,57.8,41.3,30.10,SSE,164,10.0,10.0,54,0.00,,---,0.00,VWS V14.01,2013-12-18 17:44:00,
2013-12-18 11:49:00,58.2,41.7,30.09,SE,142,14.0,14.0,54,0.00,,---,0.00,VWS V14.01,2013-12-18 17:49:00,
2013-12-18 11:54:00,58.7,42.1,30.09,South,182,8.0,8.0,54,0.00,,---,0.00,VWS V14.01,2013-12-18 17:54:00,
2013-12-18 11:59:00,59.3,42.2,30.09,SSW,196,16.0,16.0,53,0.00,,---,0.00,VWS V14.01,2013-12-18 17:59:00,
2013-12-18 12:04:00,59.6,42.0,30.08,SSE,157,12.0,12.0,52,0.00,,---,0.00,VWS V14.01,2013-12-18 18:04:00,
2013-12-18 12:09:00,59.9,42.2,30.08,SSW,193,16.0,16.0,52,0.00,,---,0.00,VWS V14.01,2013-12-18 18:09:00,
2013-12-18 12:14:00,60.1,42.4,30.07,South,182,8.0,8.0,52,0.00,,---,0.00,VWS V14.01,2013-12-18 18:14:00,
2013-12-18 12:19:00,60.7,42.5,30.07,SSW,195,6.0,9.0,51,0.00,,---,0.00,VWS V14.01,2013-12-18 18:19:00,
2013-12-18 12:24:00,61.4,42.6,30.06,SSW,195,18.0,18.0,50,0.00,,---,0.00,VWS V14.01,2013-12-18 18:24:00,
2013-12-18 12:29:00,61.9,42.5,30.06,SSE,153,20.0,20.0,49,0.00,,---,0.00,VWS V14.01,2013-12-18 18:29:00,
2013-12-18 12:34:00,62.3,42.4,30.05,SSW,198,8.0,8.0,48,0.00,,---,0.00,VWS V14.01,2013-12-18 18:34:00,
2013-12-18 12:39:00,63.2,42.7,30.05,SSE,148,14.0,14.0,47,0.00,,---,0.00,VWS V14.01,2013-12-18 18:39:00,
2013-12-18 12:44:00,63.8,42.1,30.05,SSW,192,16.0,16.0,45,0.00,,---,0.00,VWS V14.01,2013-12-18 18:44:00,
2013-12-18 12:49:00,63.8,42.1,30.04,South,185,20.0,20.0,45,0.00,,---,0.00,VWS V14.01,2013-12-18 18:49:00,
2013-12-18 12:54:00,64.2,41.8,30.04,SW,223,30.0,30.0,44,0.00,,---,0.00,VWS V14.01,2013-12-18 18:54:00,
2013-12-18 12:59:00,64.5,42.1,30.04,SSW,207,14.0,14.0,44,0.00,,---,0.00,VWS V14.01,2013-12-18 18:59:00,
2013-12-18 13:04:00,64.6,41.6,30.03,South,186,22.0,22.0,43,0.00,,---,0.00,VWS V14.01,2013-12-18 19:04:00,
2013-12-18 13:09:00,64.7,41.7,30.03,South,175,14.0,14.0,43,0.00,,---,0.00,VWS V14.01,2013-12-18 19:09:00,
2013-12-18 13:14:00,65.0,42.0,30.02,South,178,18.0,18.0,43,0.00,,---,0.00,VWS V14.01,2013-12-18 19:14:00,
2013-12-18 13:19:00,65.2,41.5,30.02,SW,234,32.0,32.0,42,0.00,,---,0.00,VWS V14.01,2013-12-18 19:19:00,
2013-12-18 13:24:00,65.3,41.6,30.01,South,188,18.0,18.0,42,0.00,,---,0.00,VWS V14.01,2013-12-18 19:24:00,
2013-12-18 13:29:00,65.5,41.8,30.01,SSW,192,14.0,14.0,42,0.00,,---,0.00,VWS V14.01,2013-12-18 19:29:00,
2013-12-18 13:34:00,65.9,41.6,30.01,South,171,12.0,13.0,41,0.00,,---,0.00,VWS V14.01,2013-12-18 19:34:00,
2013-12-18 13:38:00,66.1,41.7,30.00,South,183,10.0,10.0,41,0.00,,---,0.00,VWS V14.01,2013-12-18 19:38:00,
2013-12-18 13:44:00,66.4,40.7,30.00,South,188,16.0,16.0,39,0.00,,---,0.00,VWS V14.01,2013-12-18 19:44:00,
2013-12-18 13:49:00,66.3,40.6,30.00,South,180,18.0,18.0,39,0.00,,---,0.00,VWS V14.01,2013-12-18 19:49:00,
2013-12-18 13:54:00,66.3,41.3,30.00,South,183,10.0,12.0,40,0.00,,---,0.00,VWS V14.01,2013-12-18 19:54:00,
2013-12-18 13:59:00,66.5,41.5,29.99,South,189,8.0,8.0,40,0.00,,---,0.00,VWS V14.01,2013-12-18 19:59:00,
2013-12-18 14:04:00,66.7,41.0,29.99,South,190,6.0,7.0,39,0.00,,---,0.00,VWS V14.01,2013-12-18 20:04:00,
2013-12-18 14:09:00,66.9,41.2,29.99,SW,221,28.0,28.0,39,0.00,,---,0.00,VWS V14.01,2013-12-18 20:09:00,
2013-12-18 14:14:00,67.1,40.7,29.98,South,181,12.0,12.0,38,0.00,,---,0.00,VWS V14.01,2013-12-18 20:14:00,
2013-12-18 14:19:00,67.4,40.2,29.98,SSW,202,26.0,26.0,37,0.00,,---,0.00,VWS V14.01,2013-12-18 20:19:00,
2013-12-18 14:24:00,67.5,39.6,29.98,SSW,194,14.0,14.0,36,0.00,,---,0.00,VWS V14.01,2013-12-18 20:24:00,
2013-12-18 14:29:00,67.6,40.4,29.97,South,187,10.0,10.0,37,0.00,,---,0.00,VWS V14.01,2013-12-18 20:29:00,
2013-12-18 14:34:00,67.8,39.9,29.97,South,169,28.0,28.0,36,0.00,,---,0.00,VWS V14.01,2013-12-18 20:34:00,
2013-12-18 14:39:00,68.0,40.1,29.96,South,186,14.0,15.0,36,0.00,,---,0.00,VWS V14.01,2013-12-18 20:39:00,
2013-12-18 14:44:00,68.1,40.2,29.96,South,183,24.0,24.0,36,0.00,,---,0.00,VWS V14.01,2013-12-18 20:44:00,
2013-12-18 14:49:00,68.1,40.2,29.96,South,169,6.0,10.0,36,0.00,,---,0.00,VWS V14.01,2013-12-18 20:49:00,
2013-12-18 14:54:00,68.4,40.4,29.96,South,175,12.0,12.0,36,0.00,,---,0.00,VWS V14.01,2013-12-18 20:54:00,
2013-12-18 14:59:00,68.5,40.5,29.96,South,191,8.0,14.0,36,0.00,,---,0.00,VWS V14.01,2013-12-18 20:59:00,
2013-12-18 15:04:00,68.6,40.6,29.95,SSE,165,10.0,10.0,36,0.00,,---,0.00,VWS V14.01,2013-12-18 21:04:00,
2013-12-18 15:09:00,68.6,40.6,29.95,South,171,12.0,12.0,36,0.00,,---,0.00,VWS V14.01,2013-12-18 21:09:00,
2013-12-18 15:14:00,68.7,40.7,29.96,SSE,165,12.0,12.0,36,0.00,,---,0.00,VWS V14.01,2013-12-18 21:14:00,
2013-12-18 15:19:00,68.8,40.8,29.95,South,176,12.0,12.0,36,0.00,,---,0.00,VWS V14.01,2013-12-18 21:19:00,
2013-12-18 15:24:00,68.9,40.9,29.95,South,178,6.0,14.0,36,0.00,,---,0.00,VWS V14.01,2013-12-18 21:24:00,
2013-12-18 15:29:00,68.7,40.7,29.95,SSE,167,10.0,10.0,36,0.00,,---,0.00,VWS V14.01,2013-12-18 21:29:00,
2013-12-18 15:34:00,68.6,41.3,29.95,South,172,22.0,22.0,37,0.00,,---,0.00,VWS V14.01,2013-12-18 21:34:00,
2013-12-18 15:39:00,68.5,41.2,29.95,South,180,12.0,12.0,37,0.00,,---,0.00,VWS V14.01,2013-12-18 21:39:00,
2013-12-18 15:44:00,68.1,41.6,29.95,South,187,12.0,12.0,38,0.00,,---,0.00,VWS V14.01,2013-12-18 21:44:00,
2013-12-18 15:49:00,67.8,41.3,29.95,South,184,22.0,22.0,38,0.00,,---,0.00,VWS V14.01,2013-12-18 21:49:00,
2013-12-18 15:54:00,67.6,41.8,29.95,SSW,199,28.0,28.0,39,0.00,,---,0.00,VWS V14.01,2013-12-18 21:54:00,
2013-12-18 15:59:00,67.5,41.7,29.94,SSW,210,16.0,16.0,39,0.00,,---,0.00,VWS V14.01,2013-12-18 21:59:00,
2013-12-18 16:03:00,67.4,41.6,29.94,South,183,10.0,13.0,39,0.00,,---,0.00,VWS V14.01,2013-12-18 22:03:00,
2013-12-18 16:08:00,67.3,41.5,29.94,SSE,166,18.0,18.0,39,0.00,,---,0.00,VWS V14.01,2013-12-18 22:08:00,
2013-12-18 16:13:00,67.1,42.0,29.94,South,186,12.0,12.0,40,0.00,,---,0.00,VWS V14.01,2013-12-18 22:13:00,
2013-12-18 16:18:00,66.8,41.7,29.94,SSE,165,12.0,12.0,40,0.00,,---,0.00,VWS V14.01,2013-12-18 22:18:00,
2013-12-18 16:23:00,66.5,41.5,29.93,SE,144,16.0,16.0,40,0.00,,---,0.00,VWS V14.01,2013-12-18 22:23:00,
2013-12-18 16:28:00,66.3,41.3,29.93,South,175,10.0,10.0,40,0.00,,---,0.00,VWS V14.01,2013-12-18 22:28:00,
2013-12-18 16:33:00,66.0,41.7,29.93,South,178,12.0,12.0,41,0.00,,---,0.00,VWS V14.01,2013-12-18 22:33:00,
2013-12-18 16:38:00,65.7,42.0,29.93,South,177,6.0,6.0,42,0.00,,---,0.00,VWS V14.01,2013-12-18 22:38:00,
2013-12-18 16:43:00,65.4,41.7,29.93,SSE,167,10.0,10.0,42,0.00,,---,0.00,VWS V14.01,2013-12-18 22:43:00,
2013-12-18 16:48:00,65.0,42.0,29.93,SSE,152,12.0,12.0,43,0.00,,---,0.00,VWS V14.01,2013-12-18 22:48:00,
2013-12-18 16:53:00,64.6,41.6,29.93,SE,145,6.0,9.0,43,0.00,,---,0.00,VWS V14.01,2013-12-18 22:53:00,
2013-12-18 16:59:00,64.3,41.3,29.93,South,169,12.0,12.0,43,0.00,,---,0.00,VWS V14.01,2013-12-18 22:59:00,
2013-12-18 17:04:00,63.9,41.6,29.93,SSE,167,8.0,8.0,44,0.00,,---,0.00,VWS V14.01,2013-12-18 23:04:00,
2013-12-18 17:09:00,63.5,41.2,29.93,SSE,165,4.0,8.0,44,0.00,,---,0.00,VWS V14.01,2013-12-18 23:09:00,
2013-12-18 17:14:00,63.2,41.5,29.92,South,178,10.0,10.0,45,0.00,,---,0.00,VWS V14.01,2013-12-18 23:14:00,
2013-12-18 17:19:00,62.8,41.2,29.92,South,172,14.0,14.0,45,0.00,,---,0.00,VWS V14.01,2013-12-18 23:19:00,
2013-12-18 17:24:00,62.6,41.0,29.92,SSE,156,6.0,7.0,45,0.00,,---,0.00,VWS V14.01,2013-12-18 23:24:00,
2013-12-18 17:29:00,62.4,40.8,29.92,South,182,6.0,6.0,45,0.00,,---,0.00,VWS V14.01,2013-12-18 23:29:00,
2013-12-18 17:34:00,62.3,40.7,29.92,SSE,152,4.0,5.0,45,0.00,,---,0.00,VWS V14.01,2013-12-18 23:34:00,
2013-12-18 17:39:00,62.1,40.5,29.92,South,182,8.0,8.0,45,0.00,,---,0.00,VWS V14.01,2013-12-18 23:39:00,
2013-12-18 17:44:00,61.9,40.3,29.92,South,175,10.0,10.0,45,0.00,,---,0.00,VWS V14.01,2013-12-18 23:44:00,
2013-12-18 17:49:00,61.6,40.1,29.92,SSE,165,6.0,6.0,45,0.00,,---,0.00,VWS V14.01,2013-12-18 23:49:00,
2013-12-18 17:54:00,61.4,39.9,29.92,SE,144,10.0,10.0,45,0.00,,---,0.00,VWS V14.01,2013-12-18 23:54:00,
2013-12-18 17:59:00,61.1,40.2,29.92,South,169,12.0,12.0,46,0.00,,---,0.00,VWS V14.01,2013-12-18 23:59:00,
2013-12-18 18:04:00,60.8,39.9,29.92,SE,142,4.0,4.0,46,0.00,,---,0.00,VWS V14.01,2013-12-19 00:04:00,
2013-12-18 18:09:00,60.4,40.1,29.92,SE,146,4.0,4.0,47,0.00,,---,0.00,VWS V14.01,2013-12-19 00:09:00,
2013-12-18 18:14:00,59.9,40.2,29.92,SSE,150,8.0,8.0,48,0.00,,---,0.00,VWS V14.01,2013-12-19 00:14:00,
2013-12-18 18:19:00,59.5,39.8,29.92,SSE,168,10.0,10.0,48,0.00,,---,0.00,VWS V14.01,2013-12-19 00:19:00,
2013-12-18 18:24:00,59.3,40.2,29.92,SSE,163,8.0,8.0,49,0.00,,---,0.00,VWS V14.01,2013-12-19 00:24:00,
2013-12-18 18:29:00,59.1,40.0,29.92,SSE,166,10.0,10.0,49,0.00,,---,0.00,VWS V14.01,2013-12-19 00:29:00,
2013-12-18 18:34:00,59.1,40.0,29.92,SSE,164,6.0,6.0,49,0.00,,---,0.00,VWS V14.01,2013-12-19 00:34:00,
2013-12-18 18:39:00,59.0,39.9,29.92,South,171,6.0,6.0,49,0.00,,---,0.00,VWS V14.01,2013-12-19 00:39:00,
2013-12-18 18:44:00,59.0,39.9,29.92,South,180,8.0,8.0,49,0.00,,---,0.00,VWS V14.01,2013-12-19 00:44:00,
2013-12-18 18:49:00,58.9,39.8,29.92,South,177,8.0,8.0,49,0.00,,---,0.00,VWS V14.01,2013-12-19 00:49:00,
2013-12-18 18:54:00,58.7,39.6,29.92,South,169,8.0,8.0,49,0.00,,---,0.00,VWS V14.01,2013-12-19 00:54:00,
2013-12-18 18:59:00,58.6,39.5,29.92,South,181,6.0,6.0,49,0.00,,---,0.00,VWS V14.01,2013-12-19 00:59:00,
2013-12-18 19:04:00,58.5,39.4,29.92,South,173,6.0,6.0,49,0.00,,---,0.00,VWS V14.01,2013-12-19 01:04:00,
2013-12-18 19:09:00,58.4,39.3,29.92,SSE,165,16.0,16.0,49,0.00,,---,0.00,VWS V14.01,2013-12-19 01:09:00,
2013-12-18 19:14:00,58.3,39.2,29.92,South,171,12.0,12.0,49,0.00,,---,0.00,VWS V14.01,2013-12-19 01:14:00,
2013-12-18 19:19:00,58.3,38.7,29.92,South,171,10.0,10.0,48,0.00,,---,0.00,VWS V14.01,2013-12-19 01:19:00,
2013-12-18 19:24:00,58.2,38.6,29.92,South,173,8.0,8.0,48,0.00,,---,0.00,VWS V14.01,2013-12-19 01:24:00,
2013-12-18 19:29:00,58.0,39.0,29.92,South,173,12.0,12.0,49,0.00,,---,0.00,VWS V14.01,2013-12-19 01:29:00,
2013-12-18 19:34:00,57.8,38.8,29.92,South,173,12.0,12.0,49,0.00,,---,0.00,VWS V14.01,2013-12-19 01:34:00,
2013-12-18 19:39:00,57.7,39.2,29.93,South,173,14.0,14.0,50,0.00,,---,0.00,VWS V14.01,2013-12-19 01:39:00,
2013-12-18 19:44:00,57.3,39.3,29.92,South,175,10.0,10.0,51,0.00,,---,0.00,VWS V14.01,2013-12-19 01:44:00,
2013-12-18 19:49:00,57.0,39.6,29.92,SSE,161,10.0,10.0,52,0.00,,---,0.00,VWS V14.01,2013-12-19 01:49:00,
2013-12-18 19:54:00,56.7,39.8,29.92,SSE,159,16.0,16.0,53,0.00,,---,0.00,VWS V14.01,2013-12-19 01:54:00,
2013-12-18 19:59:00,56.4,39.5,29.92,SSE,148,6.0,6.0,53,0.00,,---,0.00,VWS V14.01,2013-12-19 01:59:00,
2013-12-18 20:04:00,56.2,39.8,29.92,SSE,162,8.0,8.0,54,0.00,,---,0.00,VWS V14.01,2013-12-19 02:04:00,
2013-12-18 20:09:00,55.9,40.0,29.92,SE,135,4.0,4.0,55,0.00,,---,0.00,VWS V14.01,2013-12-19 02:09:00,
2013-12-18 20:14:00,55.5,39.6,29.92,SSE,159,2.0,2.0,55,0.00,,---,0.00,VWS V14.01,2013-12-19 02:14:00,
2013-12-18 20:19:00,55.3,39.9,29.92,SSE,159,4.0,4.0,56,0.00,,---,0.00,VWS V14.01,2013-12-19 02:19:00,
2013-12-18 20:24:00,55.1,39.7,29.92,South,169,6.0,6.0,56,0.00,,---,0.00,VWS V14.01,2013-12-19 02:24:00,
2013-12-18 20:29:00,54.9,40.0,29.92,South,169,10.0,10.0,57,0.00,,---,0.00,VWS V14.01,2013-12-19 02:29:00,
2013-12-18 20:34:00,54.8,40.3,29.92,South,175,4.0,4.0,58,0.00,,---,0.00,VWS V14.01,2013-12-19 02:34:00,
2013-12-18 20:39:00,54.6,40.1,29.92,South,170,12.0,12.0,58,0.00,,---,0.00,VWS V14.01,2013-12-19 02:39:00,
2013-12-18 20:44:00,54.6,40.1,29.92,SE,144,6.0,6.0,58,0.00,,---,0.00,VWS V14.01,2013-12-19 02:44:00,
2013-12-18 20:49:00,54.6,40.6,29.92,SSE,161,6.0,6.0,59,0.00,,---,0.00,VWS V14.01,2013-12-19 02:49:00,
2013-12-18 20:54:00,54.6,40.6,29.92,SSE,154,6.0,6.0,59,0.00,,---,0.00,VWS V14.01,2013-12-19 02:54:00,
2013-12-18 20:59:00,54.5,40.5,29.92,SSE,167,12.0,12.0,59,0.00,,---,0.00,VWS V14.01,2013-12-19 02:59:00,
2013-12-18 21:04:00,54.6,41.0,29.92,South,175,4.0,5.0,60,0.00,,---,0.00,VWS V14.01,2013-12-19 03:04:00,
2013-12-18 21:09:00,54.5,40.9,29.92,South,182,6.0,6.0,60,0.00,,---,0.00,VWS V14.01,2013-12-19 03:09:00,
2013-12-18 21:14:00,54.6,41.0,29.92,South,172,12.0,12.0,60,0.00,,---,0.00,VWS V14.01,2013-12-19 03:14:00,
2013-12-18 21:19:00,54.6,41.0,29.92,South,173,8.0,8.0,60,0.00,,---,0.00,VWS V14.01,2013-12-19 03:19:00,
2013-12-18 21:24:00,54.6,41.0,29.92,SSE,164,6.0,6.0,60,0.00,,---,0.00,VWS V14.01,2013-12-19 03:24:00,
2013-12-18 21:29:00,54.6,41.4,29.92,South,171,6.0,6.0,61,0.00,,---,0.00,VWS V14.01,2013-12-19 03:29:00,
2013-12-18 21:34:00,54.6,41.4,29.92,South,173,4.0,4.0,61,0.00,,---,0.00,VWS V14.01,2013-12-19 03:34:00,
2013-12-18 21:39:00,54.7,41.5,29.92,SSE,162,6.0,6.0,61,0.00,,---,0.00,VWS V14.01,2013-12-19 03:39:00,
2013-12-18 21:44:00,54.8,41.6,29.92,SSE,157,8.0,8.0,61,0.00,,---,0.00,VWS V14.01,2013-12-19 03:44:00,
2013-12-18 21:49:00,55.0,41.8,29.92,South,172,10.0,10.0,61,0.00,,---,0.00,VWS V14.01,2013-12-19 03:49:00,
2013-12-18 21:54:00,55.1,42.3,29.92,SSE,166,8.0,8.0,62,0.00,,---,0.00,VWS V14.01,2013-12-19 03:54:00,
2013-12-18 21:59:00,55.1,42.3,29.92,SSE,157,8.0,8.0,62,0.00,,---,0.00,VWS V14.01,2013-12-19 03:59:00,
2013-12-18 22:04:00,55.0,42.2,29.92,South,170,6.0,6.0,62,0.00,,---,0.00,VWS V14.01,2013-12-19 04:04:00,
2013-12-18 22:09:00,55.0,42.2,29.92,South,177,12.0,12.0,62,0.00,,---,0.00,VWS V14.01,2013-12-19 04:09:00,
2013-12-18 22:14:00,55.0,42.7,29.92,South,181,8.0,8.0,63,0.00,,---,0.00,VWS V14.01,2013-12-19 04:14:00,
2013-12-18 22:19:00,55.1,42.8,29.92,South,172,10.0,10.0,63,0.00,,---,0.00,VWS V14.01,2013-12-19 04:19:00,
2013-12-18 22:24:00,55.1,42.8,29.92,South,178,10.0,10.0,63,0.00,,---,0.00,VWS V14.01,2013-12-19 04:24:00,
2013-12-18 22:29:00,55.1,42.8,29.92,South,175,8.0,8.0,63,0.00,,---,0.00,VWS V14.01,2013-12-19 04:29:00,
2013-12-18 22:34:00,55.1,43.2,29.92,South,177,18.0,18.0,64,0.00,,---,0.00,VWS V14.01,2013-12-19 04:34:00,
2013-12-18 22:39:00,55.1,43.2,29.92,South,181,10.0,10.0,64,0.00,,---,0.00,VWS V14.01,2013-12-19 04:39:00,
2013-12-18 22:44:00,55.2,43.2,29.92,South,182,6.0,6.0,64,0.00,,---,0.00,VWS V14.01,2013-12-19 04:44:00,
2013-12-18 22:49:00,55.3,43.3,29.91,South,182,14.0,14.0,64,0.00,,---,0.00,VWS V14.01,2013-12-19 04:49:00,
2013-12-18 22:54:00,55.3,43.3,29.91,South,180,2.0,2.0,64,0.00,,---,0.00,VWS V14.01,2013-12-19 04:54:00,
2013-12-18 22:59:00,55.4,43.8,29.91,SSW,192,10.0,10.0,65,0.00,,---,0.00,VWS V14.01,2013-12-19 04:59:00,
2013-12-18 23:01:00,55.5,43.5,29.91,SSW,198,22.0,22.0,64,0.00,,---,0.00,VWS V14.01,2013-12-19 05:01:00,
2013-12-18 23:06:00,55.7,43.7,29.91,South,171,16.0,16.0,64,0.00,,---,0.00,VWS V14.01,2013-12-19 05:06:00,
2013-12-18 23:11:00,55.9,43.9,29.91,South,173,20.0,20.0,64,0.00,,---,0.00,VWS V14.01,2013-12-19 05:11:00,
2013-12-18 23:16:00,55.9,43.9,29.91,South,178,18.0,18.0,64,0.00,,---,0.00,VWS V14.01,2013-12-19 05:16:00,
2013-12-18 23:21:00,56.0,44.0,29.91,SSE,165,16.0,16.0,64,0.00,,---,0.00,VWS V14.01,2013-12-19 05:21:00,
2013-12-18 23:26:00,55.9,43.9,29.91,South,184,10.0,10.0,64,0.00,,---,0.00,VWS V14.01,2013-12-19 05:26:00,
2013-12-18 23:31:00,55.7,43.7,29.91,SSE,150,8.0,9.0,64,0.00,,---,0.00,VWS V14.01,2013-12-19 05:31:00,
2013-12-18 23:36:00,55.7,43.7,29.90,South,173,10.0,10.0,64,0.00,,---,0.00,VWS V14.01,2013-12-19 05:36:00,
2013-12-18 23:41:00,55.5,43.9,29.90,SSE,153,12.0,12.0,65,0.00,,---,0.00,VWS V14.01,2013-12-19 05:41:00,
2013-12-18 23:46:00,55.4,43.8,29.90,SSE,166,16.0,16.0,65,0.00,,---,0.00,VWS V14.01,2013-12-19 05:46:00,
2013-12-18 23:51:00,55.4,43.8,29.90,South,187,8.0,8.0,65,0.00,,---,0.00,VWS V14.01,2013-12-19 05:51:00,
2013-12-18 23:56:00,55.3,43.8,29.90,South,178,4.0,4.0,65,0.00,,---,0.00,VWS V14.01,2013-12-19 05:56:00,